User: anonymous   Login
Location: NJAA Observatory
(40.6819°N, 74.8979°W)
Time: 16:51:38
(UTC-04:00)
Language:

Meteor 2-9 Rocket - Orbit

View from above orbital plane
View from above orbital plane
View from above satellite
View from above satellite

Ground track
Ground track

The orbit data is extracted from the following two-line orbital elements,

1 13719U 82116B   17202.24437447 +.00000071 +00000-0 +29808-4 0  9995
2 13719 081.2562 327.0023 0070636 255.3014 149.6704 14.14606981785186
Epoch (UTC): 21 July 2017 05:51:53
Eccentricity: 0.0070636
inclination: 81.2562°
perigee height: 792 km
apogee height: 894 km
right ascension of ascending node: 327.0023°
argument of perigee: 255.3014°
revolutions per day: 14.14606981
mean anomaly at epoch: 149.6704°
orbit number at epoch: 78518

The dashed part of the orbit path shows where the satellite is in the earth's shadow,  

DLR